Tracking 22130 objects as of 21-Jan-2021
HD Live streaming from Space Station
objects crossing your sky now

COSMOS 1867 COOLANT

Track COSMOS 1867 COOLANT now!
10-day predictions


NORAD ID: 39675
Int'l Code: 1987-060AN
Perigee: 780.6 km
Apogee: 804.9 km
Inclination: 65.0 °
Period: 100.6 minutes
Semi major axis: 7163 km
RCS: Unknown
Launch date: July 10, 1987
Source: Commonwealth of Independent States (former USSR) (CIS)
Launch site: TYURATAM MISSILE AND SPACE COMPLEX (TTMTR)

Note: This is SATELLITE DEBRIS
aabbcc
Your satellite tracking list
Your tracking list is empty




NASA's NSSDC Master Catalog

Two Line Element Set (TLE):
1 39675U 87060AN  21020.73357242  .00000000  00000-0  37469-4 0  9992
2 39675  65.0082 146.6924 0016986 282.0925  77.8256 14.31829756353960
Source of the keplerian elements: AFSPC